This is the latest recevied weather packets stored in our database for station/object HP1PCR-13. If no packets are shown the sender has not sent any weather packets the latest 10 day(s).
| Time | Temp. | Humidity | Pressure | Rain* | Wind** | Luminosity | Snow |
|---|---|---|---|---|---|---|---|
| 1777410607 | 29.44° C | 39% | 1001.4 hPa | - | - | - | - |
| 1777410003 | 28.89° C | 33% | 1001.5 hPa | - | - | - | - |
| 1777409399 | 29.44° C | 34% | 1001.5 hPa | - | - | - | - |
| 1777408795 | 29.44° C | 38% | 1001.6 hPa | - | - | - | - |
| 1777408190 | 29.44° C | 39% | 1001.6 hPa | - | - | - | - |
| 1777407586 | 28.89° C | 33% | 1001.7 hPa | - | - | - | - |
| 1777406982 | 28.89° C | 32% | 1001.7 hPa | - | - | - | - |
| 1777406378 | 28.89° C | 31% | 1001.6 hPa | - | - | - | - |
| 1777405170 | 28.89° C | 31% | 1001.5 hPa | - | - | - | - |
| 1777404566 | 29.44° C | 32% | 1001.7 hPa | - | - | - | - |
| 1777403962 | 29.44° C | 32% | 1001.8 hPa | - | - | - | - |
| 1777402149 | 29.44° C | 32% | 1002.6 hPa | - | - | - | - |
| 1777401545 | 29.44° C | 34% | 1003 hPa | - | - | - | - |
| 1777400941 | 29.44° C | 32% | 1003 hPa | - | - | - | - |
| 1777399732 | 29.44° C | 33% | 1003.3 hPa | - | - | - | - |
| 1777399129 | 30° C | 34% | 1003.4 hPa | - | - | - | - |
| 1777397317 | 30° C | 36% | 1004 hPa | - | - | - | - |
| 1777396712 | 29.44° C | 36% | 1004.2 hPa | - | - | - | - |
| 1777395504 | 29.44° C | 33% | 1004.5 hPa | - | - | - | - |
| 1777394900 | 29.44° C | 32% | 1004.3 hPa | - | - | - | - |
| 1777394296 | 29.44° C | 31% | 1004.3 hPa | - | - | - | - |
| 1777393691 | 29.44° C | 31% | 1004.6 hPa | - | - | - | - |
| 1777392483 | 30° C | 31% | 1004.8 hPa | - | - | - | - |
| 1777391275 | 30° C | 32% | 1005 hPa | - | - | - | - |
| 1777390671 | 30° C | 32% | 1005 hPa | - | - | - | - |
* Rain since midnight (hover to see other rain measurements)
** Current wind speed in m/s (hover to see current wind gust speed)